TimeMST,TemperatureF,Dew PointF,Humidity,Sea Level PressureIn,VisibilityMPH,Wind Direction,Wind SpeedMPH,Gust SpeedMPH,PrecipitationIn,Events,Conditions,WindDirDegrees,DateUTC
12:10 AM,19.4,19.4,100,30.35,1.8,SE,3.5,-,N/A,Snow,Light Snow,140,2013-11-23 07:10:00
12:30 AM,19.4,19.4,100,30.35,2.5,SSE,4.6,-,N/A,Snow,Light Snow,150,2013-11-23 07:30:00
12:50 AM,21.2,21.2,100,30.34,1.0,SSW,4.6,-,N/A,Snow,Light Snow,210,2013-11-23 07:50:00
1:10 AM,23.0,23.0,100,30.35,0.5,SSW,6.9,-,0.01,Snow,Snow,200,2013-11-23 08:10:00
1:30 AM,24.8,24.8,100,30.35,0.2,SSW,6.9,-,0.01,Snow,Light Snow,210,2013-11-23 08:30:00
1:50 AM,24.8,24.8,100,30.35,0.2,SSW,5.8,16.1,0.01,Snow,Light Snow,210,2013-11-23 08:50:00
2:10 AM,24.8,24.8,100,30.35,0.2,SSW,4.6,-,N/A,Snow,Light Snow,210,2013-11-23 09:10:00
2:30 AM,24.8,24.8,100,30.35,0.2,SSW,4.6,-,N/A,Snow,Snow,210,2013-11-23 09:30:00
2:50 AM,24.8,24.8,100,30.35,0.2,SSW,5.8,-,0.01,Snow,Snow,210,2013-11-23 09:50:00
3:10 AM,23.0,23.0,100,30.35,0.2,Calm,Calm,-,N/A,Snow,Snow,0,2013-11-23 10:10:00
3:30 AM,19.4,19.4,100,30.35,2.5,ENE,3.5,-,N/A,Snow,Light Snow,60,2013-11-23 10:30:00
3:50 AM,19.4,17.6,93,30.35,5.0,Calm,Calm,-,N/A,Snow,Light Snow,0,2013-11-23 10:50:00
4:10 AM,17.6,17.6,100,30.35,4.0,Calm,Calm,-,N/A,,Overcast,0,2013-11-23 11:10:00
4:30 AM,17.6,17.6,100,30.35,7.0,ESE,3.5,-,N/A,Snow,Light Snow,110,2013-11-23 11:30:00
4:50 AM,17.6,17.6,100,30.35,2.5,East,3.5,-,N/A,Snow,Light Snow,80,2013-11-23 11:50:00
5:10 AM,17.6,17.6,100,30.35,7.0,SE,4.6,-,N/A,Snow,Light Snow,130,2013-11-23 12:10:00
5:30 AM,17.6,15.8,93,30.35,1.2,East,3.5,-,0.02,Snow,Light Snow,80,2013-11-23 12:30:00
5:50 AM,17.6,15.8,93,30.35,2.0,East,6.9,-,0.03,Snow,Light Snow,80,2013-11-23 12:50:00
6:10 AM,17.6,15.8,93,30.36,5.0,Calm,Calm,-,N/A,,Overcast,0,2013-11-23 13:10:00
6:30 AM,17.6,15.8,93,30.36,3.0,ENE,5.8,-,N/A,Snow,Light Snow,70,2013-11-23 13:30:00
6:50 AM,17.6,15.8,93,30.36,3.0,ENE,5.8,-,N/A,Snow,Light Snow,60,2013-11-23 13:50:00
7:10 AM,15.8,15.8,100,30.36,1.5,East,8.1,-,N/A,Snow,Light Snow,80,2013-11-23 14:10:00
7:30 AM,15.8,14.0,93,30.36,4.0,ENE,11.5,-,0.01,Snow,Light Snow,70,2013-11-23 14:30:00
7:50 AM,17.6,15.8,93,30.37,1.8,ENE,8.1,-,0.02,Snow,Light Snow,70,2013-11-23 14:50:00
8:10 AM,17.6,15.8,93,30.37,7.0,East,6.9,-,N/A,Snow,Light Snow,80,2013-11-23 15:10:00
8:30 AM,17.6,17.6,100,30.38,10.0,ESE,3.5,-,N/A,,Overcast,110,2013-11-23 15:30:00
8:50 AM,19.4,17.6,93,30.38,10.0,ESE,3.5,-,N/A,,Overcast,120,2013-11-23 15:50:00
9:10 AM,17.6,17.6,100,30.38,10.0,Calm,Calm,-,N/A,Snow,Light Snow,0,2013-11-23 16:10:00
9:30 AM,17.6,17.6,100,30.38,5.0,East,3.5,-,N/A,Snow,Light Snow,80,2013-11-23 16:30:00
9:50 AM,17.6,17.6,100,30.38,7.0,East,3.5,-,N/A,Snow,Light Snow,90,2013-11-23 16:50:00
10:10 AM,17.6,17.6,100,30.38,7.0,East,3.5,-,N/A,Snow,Light Snow,80,2013-11-23 17:10:00
10:30 AM,19.4,17.6,93,30.38,4.0,SSE,4.6,-,N/A,Snow,Light Snow,150,2013-11-23 17:30:00
10:50 AM,24.8,24.8,100,30.38,5.0,South,8.1,-,N/A,Snow,Light Snow,180,2013-11-23 17:50:00
11:10 AM,26.6,26.6,100,30.37,1.8,SSW,3.5,-,N/A,,Overcast,200,2013-11-23 18:10:00
11:30 AM,26.6,26.6,100,30.37,0.8,South,4.6,-,N/A,,Overcast,190,2013-11-23 18:30:00
11:50 AM,26.6,26.6,100,30.36,4.0,SSW,4.6,-,N/A,Snow,Light Snow,200,2013-11-23 18:50:00
12:10 PM,26.6,26.6,100,30.35,1.8,South,5.8,-,N/A,Snow,Light Snow,190,2013-11-23 19:10:00
12:30 PM,28.4,28.4,100,30.34,2.0,SSW,5.8,-,N/A,,Overcast,210,2013-11-23 19:30:00
12:50 PM,26.6,26.6,100,30.34,2.5,SSW,6.9,-,N/A,,Overcast,200,2013-11-23 19:50:00
1:10 PM,26.6,26.6,100,30.34,0.2,SSW,9.2,19.6,N/A,Fog,Light Freezing Fog,210,2013-11-23 20:10:00
1:30 PM,24.8,24.8,100,30.33,0.2,SSW,4.6,-,N/A,Fog,Light Freezing Fog,210,2013-11-23 20:30:00
1:50 PM,24.8,24.8,100,30.33,0.2,South,6.9,-,N/A,Snow,Light Snow,170,2013-11-23 20:50:00
2:10 PM,26.6,26.6,100,30.32,2.5,South,10.4,18.4,N/A,Snow,Light Snow,180,2013-11-23 21:10:00
2:30 PM,26.6,26.6,100,30.31,1.2,South,5.8,-,N/A,Snow,Light Snow,190,2013-11-23 21:30:00
2:50 PM,26.6,26.6,100,30.30,0.5,South,9.2,-,N/A,Snow,Light Snow,190,2013-11-23 21:50:00
3:10 PM,26.6,26.6,100,30.30,0.2,South,8.1,-,0.02,Snow,Snow,190,2013-11-23 22:10:00
3:30 PM,26.6,26.6,100,30.29,0.2,South,4.6,-,0.03,Snow,Snow,180,2013-11-23 22:30:00
3:50 PM,23.0,23.0,100,30.29,1.8,SSE,3.5,-,0.03,Snow,Light Snow,160,2013-11-23 22:50:00
4:10 PM,19.4,17.6,93,30.29,2.0,Calm,Calm,-,N/A,Snow,Light Snow,0,2013-11-23 23:10:00
4:30 PM,17.6,17.6,100,30.29,0.8,Calm,Calm,-,0.01,Snow,Light Snow,0,2013-11-23 23:30:00
4:50 PM,17.6,17.6,100,30.29,0.8,SSE,5.8,-,0.02,Snow,Light Snow,160,2013-11-23 23:50:00
5:10 PM,21.2,21.2,100,30.27,0.2,SSE,5.8,-,0.02,Snow,Heavy Snow,150,2013-11-24 00:10:00
5:30 PM,19.4,17.6,93,30.27,3.0,Calm,Calm,-,0.03,Snow,Light Snow,0,2013-11-24 00:30:00
5:50 PM,17.6,17.6,100,30.27,1.0,ESE,3.5,-,0.05,Snow,Snow,110,2013-11-24 00:50:00
6:10 PM,17.6,15.8,93,30.27,1.8,Calm,Calm,-,0.01,Snow,Light Snow,0,2013-11-24 01:10:00
6:30 PM,17.6,17.6,100,30.27,2.0,ESE,3.5,-,0.01,Snow,Light Snow,110,2013-11-24 01:30:00
6:50 PM,17.6,17.6,100,30.26,5.0,East,5.8,-,0.02,Snow,Light Snow,80,2013-11-24 01:50:00
7:10 PM,17.6,17.6,100,30.26,1.2,East,8.1,-,0.01,Snow,Light Snow,80,2013-11-24 02:10:00
7:30 PM,17.6,15.8,93,30.27,0.8,Calm,Calm,-,0.04,Snow,Light Snow,0,2013-11-24 02:30:00
7:50 PM,17.6,17.6,100,30.27,1.0,Calm,Calm,-,0.06,Snow,Snow,0,2013-11-24 02:50:00
8:10 PM,17.6,17.6,100,30.26,0.8,Calm,Calm,-,0.01,Snow,Snow,0,2013-11-24 03:10:00
8:30 PM,17.6,17.6,100,30.25,2.0,Calm,Calm,-,0.01,Snow,Light Snow,0,2013-11-24 03:30:00
8:50 PM,21.2,21.2,100,30.26,0.2,SSW,3.5,-,0.08,Snow,Heavy Snow,200,2013-11-24 03:50:00
9:10 PM,21.2,21.2,100,30.27,0.8,SSW,8.1,-,0.02,Snow,Snow,210,2013-11-24 04:10:00
9:30 PM,21.2,21.2,100,30.27,0.8,South,4.6,-,0.07,Snow,Snow,180,2013-11-24 04:30:00
9:50 PM,23.0,23.0,100,30.25,1.2,SSW,6.9,-,0.08,Snow,Light Snow,200,2013-11-24 04:50:00
10:01 PM,23.0,21.2,93,30.25,0.5,SSW,5.8,-,N/A,Snow,Snow,210,2013-11-24 05:01:00
10:30 PM,21.2,21.2,100,30.24,0.8,Calm,Calm,-,0.02,Snow,Snow,0,2013-11-24 05:30:00
10:50 PM,21.2,21.2,100,30.25,1.0,SW,5.8,-,0.03,Snow,Snow,230,2013-11-24 05:50:00
11:10 PM,21.2,21.2,100,30.26,0.5,SW,10.4,-,0.02,Snow,Heavy Snow,220,2013-11-24 06:10:00
11:30 PM,21.2,19.4,93,30.26,0.5,North,-9999.0,-,0.05,Snow,Heavy Snow,0,2013-11-24 06:30:00
11:50 PM,19.4,19.4,100,30.25,0.2,North,-9999.0,-,0.09,Snow,Heavy Snow,0,2013-11-24 06:50:00